Wind_Speed
9 8 8 6 5 5 4 3 3 3 3 3 3 4 5 6 7 8 9 10 11 12 13 14 14 14 14 14 14 14 13 12 12 11 11 10 9 9 8 8 8 9 10
9 9 8 7 6 5 4 4 4 3 3 3 3 4 5 5 6 7 8 9 10 12 13 14 14 14 14 14 14 14 13 13 13 12 12 11 10 9 9 8 8 8 9
9 9 9 8 7 6 5 4 4 4 3 3 3 3 4 5 6 8 9 10 11 12 14 14 15 14 14 14 14 14 13 13 13 13 13 12 11 10 9 9 8 8 8
9 9 9 9 8 7 6 5 4 4 3 3 3 4 5 6 7 9 9 11 12 13 14 15 15 15 15 14 14 14 14 14 14 14 14 13 12 11 10 10 9 8 8
10 10 9 9 9 8 7 6 6 5 4 4 4 5 6 7 8 9 10 11 13 13 14 15 15 15 15 15 15 15 15 15 15 15 14 13 12 11 11 10 9 9 9
10 10 10 10 9 9 8 8 7 6 5 5 5 6 6 7 8 9 10 12 13 13 14 15 15 15 16 16 16 16 16 16 16 16 15 14 13 12 11 10 9 9 9
10 11 10 10 10 10 9 8 8 7 6 6 7 7 7 8 9 10 11 13 13 13 14 15 15 16 16 17 17 17 17 17 17 17 16 15 14 13 12 11 10 9 9
10 10 10 10 10 10 9 9 8 7 7 7 8 8 8 9 10 11 12 13 14 14 15 15 16 17 18 18 19 19 18 18 18 17 16 16 15 14 13 12 11 11 11
10 10 10 11 11 10 10 9 9 8 8 9 9 10 10 11 12 13 14 14 15 15 16 17 17 18 19 20 20 20 20 20 19 18 17 17 16 15 14 13 12 12 12
10 10 10 10 11 11 10 10 10 10 10 10 11 11 12 13 13 14 15 15 16 16 17 18 19 19 20 21 21 21 21 20 20 19 19 18 17 16 15 14 13 13 13
10 10 11 11 11 11 11 11 11 11 11 11 12 13 13 14 15 15 16 17 17 17 18 18 19 20 21 22 22 22 22 21 21 20 20 20 19 17 16 15 14 15 15
10 11 11 12 12 12 12 12 12 12 13 13 13 14 15 15 16 17 17 18 18 19 19 20 21 22 22 23 23 23 23 22 22 22 22 21 20 18 17 16 16 16 17
11 11 12 13 13 13 13 13 14 14 14 14 15 16 17 17 18 18 19 19 19 20 21 22 23 23 24 24 24 24 23 23 23 23 22 21 20 18 18 18 18 18 19
13 13 13 13 14 14 14 14 15 15 16 16 17 18 19 19 19 20 20 21 21 22 22 23 24 25 25 26 26 25 25 24 24 23 22 21 20 19 19 20 20 21 21
14 14 14 14 14 15 15 16 16 17 17 18 19 20 20 20 21 21 22 22 23 23 24 24 25 26 26 27 27 26 25 25 24 23 23 23 21 21 21 22 22 23 23
15 15 15 16 16 16 17 17 18 18 19 20 20 21 21 22 22 23 23 23 24 24 25 26 27 27 28 28 28 27 26 26 25 25 25 25 24 24 25 25 24 24 25
16 16 17 17 17 18 18 19 19 20 21 21 22 22 23 23 24 24 24 25 25 27 27 28 28 29 29 29 30 29 28 28 27 27 27 27 27 27 27 27 28 28 28
17 17 18 18 19 19 20 20 21 21 22 22 23 24 24 25 25 26 26 27 27 28 28 29 29 30 30 31 31 30 30 30 29 29 29 29 29 29 29 29 30 30 30
18 18 19 19 20 20 21 21 22 22 23 24 24 25 26 26 27 27 28 28 28 29 29 30 31 31 32 32 32 32 31 31 31 32 32 32 32 32 33 33 33 32 33
19 19 20 20 21 21 22 23 23 23 24 25 26 26 27 28 28 29 29 30 30 31 31 32 32 33 33 33 33 34 34 34 34 34 34 34 35 35 36 36 35 35 35
20 20 21 21 22 23 24 25 25 26 26 27 27 28 29 29 30 30 31 32 32 33 33 34 34 35 35 36 35 36 36 36 36 37 36 36 37 38 38 38 38 38 38
21 22 23 23 24 25 26 27 27 28 28 28 29 30 31 31 32 33 34 34 35 35 36 36 36 36 37 38 38 38 38 39 39 39 39 39 39 40 40 40 40 40 40
24 24 25 25 26 26 27 28 29 29 29 30 31 32 32 33 34 35 36 37 37 38 38 38 38 39 39 40 40 40 40 40 41 41 41 41 41 41 41 41 41 41 41
26 26 27 27 28 29 29 30 30 31 31 32 33 34 35 35 36 37 38 39 39 40 40 40 40 41 41 41 42 42 42 42 43 43 43 42 42 42 43 42 42 41 42
28 28 28 29 29 30 31 31 32 33 33 34 35 36 36 37 38 39 40 40 41 42 42 42 42 42 43 43 43 44 44 44 44 44 44 44 43 44 44 43 43 42 42
29 29 30 31 31 32 33 33 34 35 36 37 37 38 39 39 40 41 41 42 42 43 43 44 45 45 45 45 45 45 46 46 46 46 45 45 44 44 43 44 43 43 43
Wind_Direction
207 210 210 214 223 231 230 231 248 272 296 311 323 337 346 353 356 359 359 357 357 356 356 354 353 352 353 354 354 355 354 353 352 349 346 341 334 324 313 301 289 277 264
210 213 218 222 228 232 231 239 255 272 289 305 320 336 347 353 356 356 357 356 355 354 355 354 352 352 353 355 355 355 353 350 348 345 341 339 334 328 318 309 297 286 271
216 220 224 226 228 231 233 240 255 265 280 300 321 335 341 345 347 348 350 351 351 353 354 354 354 354 353 352 353 352 350 347 344 342 339 335 332 326 319 312 305 293 279
223 225 226 225 224 226 231 237 245 253 265 285 306 318 325 333 339 342 345 347 348 349 350 351 352 352 350 349 348 348 348 345 343 340 337 334 330 326 321 313 305 295 283
228 228 228 227 226 227 230 236 242 248 260 280 295 307 316 325 331 336 339 342 344 345 347 348 349 349 348 347 345 344 342 342 340 339 336 332 327 323 320 315 306 296 286
234 232 230 230 231 232 234 239 243 247 260 275 288 299 308 317 324 330 334 337 338 339 343 345 346 347 346 345 343 340 338 338 337 336 334 330 326 320 316 312 306 298 289
239 234 232 233 234 234 235 240 245 251 263 275 286 295 302 310 319 325 328 331 333 335 338 341 342 342 342 342 340 338 336 335 334 332 329 325 320 316 312 308 304 297 290
238 235 234 235 236 237 239 242 248 255 266 277 285 292 301 308 314 320 323 326 329 331 333 336 337 338 338 338 336 336 334 332 331 328 325 322 317 312 307 303 299 295 289
238 237 236 236 238 240 243 246 250 258 267 278 286 292 299 305 310 314 317 320 323 325 328 331 332 333 334 334 333 332 331 330 329 326 322 318 315 310 303 299 294 290 285
235 235 236 238 240 244 248 251 255 262 270 278 287 292 297 302 306 310 312 315 317 319 323 325 326 328 329 330 330 330 329 327 326 325 321 317 312 307 300 294 290 287 283
236 237 239 243 245 249 253 256 259 264 271 278 286 291 296 300 304 307 309 312 314 316 319 321 323 324 326 327 327 327 327 325 323 321 319 316 312 306 298 293 289 286 281
243 243 245 247 250 254 258 261 264 267 272 278 285 291 295 299 302 305 308 310 312 314 315 317 319 321 322 322 323 323 323 323 320 319 316 313 309 303 297 293 290 287 281
249 251 252 254 257 259 262 264 267 269 273 279 285 291 294 298 300 303 306 308 309 311 312 314 316 318 319 319 319 318 319 319 318 318 316 312 308 302 297 294 292 288 285
256 257 258 260 262 263 264 266 269 272 275 280 285 290 294 297 299 301 303 305 306 308 310 312 314 315 316 317 317 316 315 316 316 316 315 312 307 302 298 295 293 290 287
260 261 263 264 265 266 267 268 270 274 277 281 286 290 293 296 298 300 302 304 305 307 309 310 312 313 314 315 315 315 314 314 314 313 312 310 305 302 298 295 292 289 286
262 264 266 267 267 268 269 270 273 276 279 283 286 290 294 296 298 299 301 302 303 305 307 308 310 311 312 313 313 313 312 311 310 309 308 306 304 301 298 296 292 289 286
263 265 267 269 271 272 272 273 276 279 282 284 287 290 293 295 297 298 299 300 302 304 305 306 308 309 311 311 311 310 309 308 306 305 305 304 301 300 298 295 292 290 287
264 265 267 270 273 274 275 276 279 282 283 285 288 290 292 294 296 298 299 300 301 302 304 305 307 308 309 309 310 310 308 306 305 303 303 301 299 298 296 293 291 289 287
266 268 270 271 274 276 277 279 281 283 285 287 288 290 292 294 295 297 298 299 300 301 303 304 306 307 307 308 308 308 306 304 304 302 301 300 298 296 294 293 290 288 286
268 268 270 273 274 277 279 281 283 285 286 288 289 290 292 293 294 296 297 298 299 300 301 303 304 305 305 306 306 305 305 304 303 302 301 299 297 297 296 294 291 288 286
269 271 273 275 277 279 281 283 285 286 287 288 289 291 293 293 294 295 296 297 298 299 300 301 302 303 303 304 305 304 304 304 303 301 300 299 298 297 296 294 292 289 287
271 273 275 277 279 281 283 284 285 286 288 289 290 291 292 293 294 294 295 296 297 298 299 300 300 301 303 303 304 304 303 303 303 301 300 299 298 297 296 294 292 290 288
273 275 277 279 281 282 284 285 286 287 288 289 290 291 291 291 293 294 294 295 296 297 298 299 300 300 301 302 302 303 303 303 303 302 300 298 297 297 296 294 293 291 288
275 276 278 279 281 283 284 285 286 287 288 289 290 290 291 292 293 294 295 295 296 297 298 298 299 300 301 301 301 301 301 301 302 302 301 298 297 296 296 295 293 291 288
275 277 278 279 281 282 284 285 286 287 288 289 290 290 291 292 294 295 295 295 296 296 297 298 298 300 300 301 300 300 300 301 301 301 300 299 298 297 296 294 292 290 288
276 277 279 280 281 283 284 285 286 287 289 289 290 290 291 292 294 295 295 295 296 296 296 297 298 299 300 300 300 300 300 300 300 300 300 299 298 297 296 294 292 289 288
Height
5888 5889 5890 5891 5892 5893 5893 5894 5894 5894 5894 5893 5892 5892 5891 5889 5888 5886 5884 5882 5880 5878 5876 5873 5870 5867 5864 5862 5859 5857 5854 5852 5850 5848 5846 5844 5842 5841 5840 5840 5839 5839 5839
5887 5888 5889 5890 5891 5892 5893 5893 5893 5893 5893 5892 5892 5891 5890 5889 5888 5886 5884 5882 5880 5878 5875 5872 5869 5866 5864 5861 5858 5856 5853 5851 5849 5847 5845 5843 5842 5840 5839 5838 5837 5837 5837
5886 5887 5888 5889 5890 5891 5892 5892 5892 5892 5892 5891 5891 5890 5890 5889 5887 5886 5884 5882 5879 5877 5874 5871 5868 5866 5863 5860 5858 5855 5853 5850 5848 5846 5844 5842 5840 5839 5838 5836 5835 5835 5834
5885 5886 5887 5888 5889 5890 5890 5891 5891 5891 5891 5891 5890 5890 5889 5888 5886 5885 5883 5881 5878 5876 5873 5871 5868 5865 5862 5859 5857 5854 5852 5849 5847 5844 5842 5840 5838 5837 5836 5834 5833 5832 5832
5883 5885 5886 5887 5888 5889 5889 5890 5890 5890 5890 5890 5889 5889 5888 5887 5885 5883 5882 5880 5877 5875 5872 5870 5867 5864 5861 5858 5855 5853 5850 5847 5845 5842 5840 5838 5836 5834 5833 5832 5831 5830 5830
5882 5883 5884 5885 5886 5887 5888 5888 5889 5889 5889 5889 5888 5887 5886 5885 5884 5882 5880 5878 5876 5874 5871 5868 5865 5863 5860 5857 5854 5851 5848 5845 5842 5840 5837 5835 5833 5832 5830 5829 5828 5828 5827
5880 5881 5883 5884 5885 5885 5886 5887 5887 5887 5887 5887 5886 5885 5885 5883 5882 5880 5878 5876 5874 5872 5869 5867 5864 5861 5858 5855 5852 5849 5846 5843 5840 5837 5834 5832 5830 5829 5827 5827 5826 5825 5825
5878 5879 5880 5882 5883 5884 5884 5885 5885 5885 5885 5885 5884 5883 5882 5881 5880 5878 5876 5874 5872 5870 5867 5865 5862 5859 5856 5852 5849 5846 5843 5840 5836 5833 5831 5829 5827 5825 5824 5823 5823 5822 5822
5876 5877 5878 5879 5880 5881 5882 5882 5883 5883 5883 5882 5882 5881 5880 5879 5877 5876 5874 5872 5869 5867 5864 5862 5859 5856 5853 5850 5846 5843 5839 5836 5833 5829 5827 5825 5823 5821 5820 5819 5819 5819 5819
5874 5875 5876 5877 5878 5879 5879 5880 5880 5880 5880 5879 5879 5878 5877 5876 5874 5873 5871 5869 5866 5864 5861 5859 5856 5853 5849 5846 5842 5839 5835 5832 5829 5825 5823 5820 5818 5816 5815 5815 5814 5814 5814
5872 5873 5874 5875 5876 5876 5876 5877 5877 5877 5877 5876 5876 5875 5874 5872 5871 5869 5867 5865 5863 5860 5858 5855 5852 5849 5845 5842 5838 5834 5831 5827 5824 5821 5818 5815 5813 5811 5810 5810 5810 5809 5809
5870 5871 5871 5872 5873 5873 5873 5873 5873 5873 5873 5872 5872 5871 5870 5868 5867 5865 5863 5861 5859 5856 5854 5851 5848 5845 5841 5837 5833 5829 5826 5822 5818 5815 5812 5809 5807 5805 5804 5804 5804 5804 5804
5867 5868 5868 5869 5869 5869 5869 5869 5869 5869 5869 5868 5868 5867 5865 5864 5862 5860 5858 5856 5854 5852 5849 5846 5843 5840 5836 5832 5828 5824 5820 5816 5813 5809 5806 5803 5801 5800 5799 5799 5798 5798 5797
5864 5865 5865 5865 5865 5865 5865 5865 5865 5865 5865 5864 5863 5862 5861 5859 5857 5856 5854 5851 5849 5847 5844 5841 5838 5834 5831 5827 5822 5818 5814 5811 5807 5804 5801 5798 5796 5795 5794 5793 5792 5791 5791
5861 5861 5861 5861 5861 5861 5861 5861 5861 5860 5860 5859 5858 5857 5855 5854 5852 5850 5848 5846 5844 5841 5838 5835 5832 5828 5825 5820 5816 5812 5808 5805 5801 5798 5796 5793 5791 5790 5788 5787 5786 5784 5783
5857 5857 5857 5857 5857 5857 5856 5856 5856 5855 5855 5854 5853 5851 5850 5848 5846 5844 5842 5840 5837 5835 5832 5829 5825 5822 5818 5814 5810 5806 5802 5799 5796 5793 5790 5788 5786 5784 5782 5780 5778 5777 5776
5852 5853 5852 5852 5852 5852 5851 5851 5850 5850 5849 5848 5847 5845 5844 5842 5840 5838 5835 5833 5830 5828 5825 5821 5818 5814 5811 5807 5803 5799 5795 5792 5789 5786 5784 5781 5779 5776 5774 5773 5771 5769 5768
5848 5847 5847 5847 5847 5847 5846 5845 5845 5844 5843 5842 5840 5839 5837 5835 5833 5831 5828 5825 5823 5820 5817 5814 5810 5807 5803 5799 5795 5791 5788 5784 5781 5778 5776 5773 5771 5768 5766 5764 5762 5760 5758
5842 5842 5842 5842 5841 5841 5840 5840 5839 5838 5836 5835 5833 5832 5830 5828 5825 5823 5820 5817 5815 5812 5809 5806 5802 5799 5795 5791 5787 5783 5779 5776 5772 5769 5767 5764 5762 5759 5757 5754 5752 5750 5748
5837 5837 5836 5836 5836 5835 5834 5833 5832 5831 5830 5828 5826 5824 5822 5820 5817 5815 5812 5809 5806 5804 5801 5797 5794 5790 5786 5783 5778 5774 5771 5767 5763 5760 5757 5754 5751 5748 5745 5743 5740 5738 5737
5831 5831 5830 5830 5829 5829 5828 5827 5825 5824 5822 5820 5818 5816 5814 5811 5809 5806 5803 5800 5798 5795 5792 5788 5785 5781 5777 5773 5769 5765 5760 5757 5753 5749 5746 5743 5740 5737 5734 5730 5728 5726 5724
5825 5824 5824 5823 5823 5822 5821 5819 5818 5816 5814 5812 5810 5808 5805 5803 5800 5797 5794 5791 5788 5785 5782 5778 5775 5771 5767 5763 5758 5754 5750 5746 5742 5738 5735 5731 5728 5724 5721 5718 5715 5712 5710
5818 5817 5817 5816 5815 5814 5813 5811 5809 5808 5806 5804 5801 5799 5796 5793 5790 5787 5784 5781 5778 5774 5771 5767 5764 5760 5756 5751 5747 5743 5739 5735 5731 5727 5723 5719 5715 5711 5708 5704 5701 5698 5695
5810 5809 5809 5808 5807 5805 5804 5802 5801 5799 5796 5794 5792 5789 5786 5783 5780 5777 5773 5770 5767 5763 5760 5756 5752 5748 5744 5739 5735 5731 5727 5723 5719 5715 5711 5707 5702 5698 5695 5691 5687 5684 5681
5802 5801 5800 5799 5798 5796 5795 5793 5791 5789 5787 5784 5781 5778 5776 5773 5769 5766 5762 5759 5756 5751 5748 5744 5740 5736 5732 5727 5723 5718 5714 5710 5706 5701 5698 5693 5689 5685 5681 5677 5673 5670 5667
5793 5792 5791 5790 5789 5787 5785 5783 5781 5779 5776 5774 5771 5767 5764 5761 5758 5755 5751 5747 5744 5740 5735 5731 5727 5723 5719 5714 5710 5705 5701 5696 5692 5687 5684 5680 5675 5671 5667 5663 5659 5656 5653